Monistrol de Calders (Moianès)





Hora UTC 21:25
Temperatura 19.9 ºC
Humitat 81.0 %
Pressió 1010.0 hPa
Pluja 0.0 mm
Velocitat vent 11.3 km/h
Direcció vent SSE

Dades diàries 2024-06-18



Hora UTC (hivern +1h; estiu +2h)
Temperatura (ºC) Humitat (%) Pressió (hPa) Velocitat vent (km/h) Precipitació (mm)
Hora UTC Aire Humitat Pressió Vel. Dir. Vel. Max Dir. Intent. màx 5 min.
00:05 15.6 86.0 1013.4 1.6 SSE 1.6 0.0
00:10 15.6 87.0 1013.4 1.6 SSE 3.2 0.0
00:15 15.5 87.0 1013.3 3.2 SSE 4.8 0.0
00:20 15.4 87.0 1013.2 3.2 SE 8.0 0.0
00:25 15.3 87.0 1013.2 4.8 S 6.4 0.0
00:30 15.3 87.0 1013.2 3.2 SE 6.4 0.0
00:35 15.3 87.0 1013.2 1.6 SSE 4.8 0.0
00:40 15.2 87.0 1013.2 0.0 S 4.8 0.0
00:45 15.2 87.0 1013.2 3.2 SSE 4.8 0.0
00:50 15.2 87.0 1013.1 1.6 SSE 4.8 0.0
00:55 15.2 87.0 1013.1 0.0 SSE 4.8 0.0
01:00 15.1 87.0 1013.1 4.8 SE 4.8 0.0
01:05 15.1 87.0 1013.1 3.2 SSE 4.8 0.0
01:10 14.9 87.0 1013.0 3.2 SSE 4.8 0.0
01:15 14.9 87.0 1013.0 0.0 S 4.8 0.0
01:20 14.8 87.0 1013.0 0.0 S 4.8 0.0
01:25 14.8 87.0 1013.0 0.0 S 1.6 0.0
01:30 14.7 87.0 1012.9 1.6 S 1.6 0.0
01:35 14.6 87.0 1012.9 0.0 S 1.6 0.0
01:40 14.6 87.0 1012.9 1.6 ESE 4.8 0.0
01:45 14.4 87.0 1012.9 4.8 SSE 4.8 0.0
01:50 14.4 87.0 1012.9 1.6 SSE 4.8 0.0
01:55 14.3 87.0 1012.9 0.0 SSE 3.2 0.0
02:00 14.2 87.0 1012.8 3.2 SE 3.2 0.0
02:05 14.1 87.0 1012.6 3.2 SE 3.2 0.0
02:10 14.1 87.0 1012.6 3.2 SE 6.4 0.0
02:15 13.9 87.0 1012.6 1.6 SSE 6.4 0.0
02:20 13.9 87.0 1012.5 3.2 SSE 4.8 0.0
02:25 13.8 87.0 1012.4 1.6 SSE 3.2 0.0
02:30 13.7 87.0 1012.3 3.2 SE 3.2 0.0
02:35 13.7 87.0 1012.3 1.6 SSE 4.8 0.0
02:40 13.7 87.0 1012.3 3.2 ESE 4.8 0.0
02:45 13.6 87.0 1012.3 3.2 SE 6.4 0.0
02:50 13.5 87.0 1012.4 1.6 SE 6.4 0.0
02:55 13.4 87.0 1012.4 4.8 SE 6.4 0.0
03:00 13.4 87.0 1012.4 1.6 ESE 6.4 0.0
03:05 13.3 87.0 1012.3 4.8 SSE 6.4 0.0
03:10 13.3 87.0 1012.3 4.8 SE 6.4 0.0
03:15 13.2 87.0 1012.3 4.8 ESE 6.4 0.0
03:20 13.1 87.0 1012.3 6.4 SSE 8.0 0.0
03:25 13.1 87.0 1012.3 1.6 SSE 8.0 0.0
03:30 13.1 87.0 1012.3 8.0 SSE 8.0 0.0
03:35 13.2 87.0 1012.2 6.4 S 9.7 0.0
03:40 13.2 87.0 1012.2 1.6 SE 9.7 0.0
03:45 13.1 87.0 1012.2 4.8 SE 6.4 0.0
03:50 13.1 87.0 1012.3 1.6 SSE 8.0 0.0
03:55 13.0 87.0 1012.3 1.6 SE 8.0 0.0
04:00 12.9 87.0 1012.2 3.2 ESE 4.8 0.0
04:05 12.8 87.0 1012.1 4.8 SSE 6.4 0.0
04:10 12.8 87.0 1012.1 3.2 SE 6.4 0.0
04:15 12.8 87.0 1012.0 6.4 SSE 9.7 0.0
04:20 12.8 87.0 1012.0 4.8 SSE 9.7 0.0
04:25 12.7 87.0 1011.9 3.2 SE 8.0 0.0
04:30 12.7 87.0 1011.9 4.8 S 8.0 0.0
04:35 12.8 87.0 1012.0 0.0 S 8.0 0.0
04:40 12.8 87.0 1011.9 6.4 SSE 8.0 0.0
04:45 12.8 87.0 1011.8 1.6 SSE 6.4 0.0
04:50 12.8 87.0 1011.8 3.2 SE 8.0 0.0
04:55 12.7 87.0 1011.9 4.8 SSE 8.0 0.0
05:00 12.8 87.0 1011.9 3.2 SE 6.4 0.0
05:05 12.9 87.0 1011.9 1.6 SSE 9.7 0.0
05:10 12.9 87.0 1011.9 1.6 S 9.7 0.0
05:15 13.1 87.0 1012.0 1.6 SSE 8.0 0.0
05:20 13.2 87.0 1012.0 1.6 SE 4.8 0.0
05:25 13.5 87.0 1012.0 3.2 SE 4.8 0.0
05:30 13.7 87.0 1012.0 3.2 SE 4.8 0.0
05:35 13.8 87.0 1012.1 3.2 SSE 8.0 0.0
05:40 14.2 87.0 1012.1 1.6 SE 4.8 0.0
05:45 14.5 87.0 1012.1 0.0 SE 4.8 0.0
05:50 14.8 87.0 1012.0 0.0 SE 3.2 0.0
05:55 15.2 87.0 1012.2 0.0 SE 3.2 0.0
06:00 15.5 87.0 1012.1 1.6 SE 3.2 0.0
06:05 15.8 87.0 1012.2 1.6 SSE 3.2 0.0
06:10 16.1 87.0 1012.2 3.2 SSE 4.8 0.0
06:15 16.3 87.0 1012.2 0.0 SE 4.8 0.0
06:20 16.8 87.0 1012.2 0.0 SE 4.8 0.0
06:25 17.3 86.0 1012.2 1.6 SE 3.2 0.0
06:30 17.7 85.0 1012.1 1.6 NNW 4.8 0.0
06:35 18.1 85.0 1012.0 1.6 NNE 4.8 0.0
06:40 18.5 84.0 1012.0 1.6 NNW 3.2 0.0
06:45 19.0 83.0 1012.0 0.0 NNE 3.2 0.0
06:50 19.4 82.0 1011.9 0.0 E 3.2 0.0
06:55 19.8 80.0 1011.8 1.6 N 3.2 0.0
07:00 20.2 79.0 1011.8 0.0 N 3.2 0.0
07:05 20.8 77.0 1011.8 1.6 SE 3.2 0.0
07:10 21.3 75.0 1011.8 3.2 ESE 4.8 0.0
07:15 21.8 73.0 1011.7 0.0 E 4.8 0.0
07:20 22.1 68.0 1011.8 8.0 S 9.7 0.0
07:25 22.4 65.0 1011.7 8.0 S 9.7 0.0
07:30 22.8 62.0 1011.7 9.7 S 11.3 0.0
07:35 23.0 61.0 1011.7 8.0 S 12.9 0.0
07:40 23.2 60.0 1011.7 11.3 S 12.9 0.0
07:45 23.3 58.0 1011.5 3.2 W 12.9 0.0
07:50 23.7 56.0 1011.4 3.2 SE 9.7 0.0
07:55 24.3 53.0 1011.3 4.8 ENE 11.3 0.0
08:00 24.6 52.0 1011.3 3.2 E 11.3 0.0
08:05 24.8 51.0 1011.3 4.8 E 12.9 0.0
08:10 24.9 51.0 1011.4 11.3 ESE 14.5 0.0
08:15 24.9 50.0 1011.3 3.2 ESE 16.1 0.0
08:20 25.2 49.0 1011.2 9.7 ESE 16.1 0.0
08:25 25.4 50.0 1011.3 3.2 SSE 12.9 0.0
08:30 25.8 51.0 1011.2 3.2 ESE 8.0 0.0
08:35 26.0 50.0 1011.1 4.8 SW 8.0 0.0
08:40 25.8 49.0 1011.1 14.5 SSE 14.5 0.0
08:45 25.8 49.0 1011.1 9.7 S 16.1 0.0
08:50 25.8 50.0 1011.1 1.6 ESE 20.9 0.0
08:55 25.9 49.0 1011.0 11.3 SSE 20.9 0.0
09:00 26.1 48.0 1011.1 4.8 SSW 16.1 0.0
09:05 26.0 49.0 1011.0 9.7 SSE 16.1 0.0
09:10 26.2 48.0 1011.2 16.1 SE 19.3 0.0
09:15 26.3 49.0 1011.3 1.6 ESE 19.3 0.0
09:20 26.6 49.0 1011.2 6.4 S 16.1 0.0
09:25 26.2 49.0 1011.3 12.9 SSW 27.4 0.0
09:30 26.4 50.0 1011.4 16.1 ESE 27.4 0.0
09:35 26.3 49.0 1011.3 20.9 E 29.0 0.0
09:40 26.3 49.0 1011.4 12.9 ESE 29.0 0.0
09:45 26.7 50.0 1011.4 14.5 S 22.5 0.0
09:50 26.7 49.0 1011.4 8.0 S 20.9 0.0
09:55 26.9 49.0 1011.5 16.1 ESE 20.9 0.0
10:00 27.0 49.0 1011.4 9.7 SSE 19.3 0.0
10:05 26.6 49.0 1011.5 20.9 S 25.7 0.0
10:10 26.4 50.0 1011.4 3.2 SE 25.7 0.0
10:15 26.8 50.0 1011.3 17.7 S 24.1 0.0
10:20 26.8 50.0 1011.4 17.7 SSE 24.1 0.0
10:25 26.7 49.0 1011.4 16.1 SSW 25.7 0.0
10:30 26.5 51.0 1011.3 14.5 SSE 25.7 0.0
10:35 26.7 50.0 1011.4 14.5 SSE 29.0 0.0
10:40 26.6 50.0 1011.4 8.0 E 29.0 0.0
10:45 26.7 50.0 1011.4 9.7 S 22.5 0.0
10:50 27.0 50.0 1011.3 16.1 SSE 22.5 0.0
10:55 27.0 51.0 1011.2 14.5 E 22.5 0.0
11:00 26.9 50.0 1011.1 11.3 SSW 22.5 0.0
11:05 27.0 51.0 1011.1 6.4 ESE 24.1 0.0
11:10 27.1 50.0 1011.0 11.3 S 20.9 0.0
11:15 27.2 50.0 1011.0 6.4 S 20.9 0.0
11:20 27.3 49.0 1011.0 11.3 ESE 22.5 0.0
11:25 27.3 49.0 1011.0 11.3 ESE 22.5 0.0
11:30 27.4 49.0 1011.0 19.3 E 29.0 0.0
11:35 27.4 48.0 1011.0 16.1 SSE 29.0 0.0
11:40 27.3 47.0 1011.0 16.1 ESE 27.4 0.0
11:45 27.5 47.0 1010.9 17.7 SE 25.7 0.0
11:50 27.7 48.0 1010.8 11.3 E 19.3 0.0
11:55 27.9 46.0 1010.8 14.5 SSE 27.4 0.0
12:00 27.9 46.0 1010.8 14.5 ESE 27.4 0.0
12:05 27.6 46.0 1010.8 17.7 ENE 30.6 0.0
12:10 27.6 46.0 1010.7 17.7 E 30.6 0.0
12:15 27.8 45.0 1010.7 11.3 ESE 25.7 0.0
12:20 28.1 46.0 1010.5 11.3 S 24.1 0.0
12:25 28.0 46.0 1010.6 17.7 ESE 27.4 0.0
12:30 28.0 46.0 1010.7 6.4 SSE 27.4 0.0
12:35 28.3 47.0 1010.6 12.9 E 20.9 0.0
12:40 28.2 46.0 1010.7 14.5 ESE 24.1 0.0
12:45 28.2 47.0 1010.5 16.1 E 20.9 0.0
12:50 28.3 47.0 1010.6 11.3 E 20.9 0.0
12:55 28.3 47.0 1010.7 17.7 SE 20.9 0.0
13:00 28.4 46.0 1010.6 16.1 SSW 24.1 0.0
13:05 28.4 46.0 1010.7 12.9 SE 25.7 0.0
13:10 28.5 47.0 1010.6 8.0 E 25.7 0.0
13:15 28.7 46.0 1010.6 12.9 SE 24.1 0.0
13:20 28.5 47.0 1010.6 12.9 E 24.1 0.0
13:25 28.8 47.0 1010.5 4.8 E 27.4 0.0
13:30 28.6 45.0 1010.5 6.4 S 24.1 0.0
13:35 28.8 47.0 1010.5 9.7 ESE 29.0 0.0
13:40 28.6 47.0 1010.5 3.2 ENE 29.0 0.0
13:45 28.6 47.0 1010.3 11.3 ESE 25.7 0.0
13:50 28.5 47.0 1010.4 14.5 E 27.4 0.0
13:55 28.4 48.0 1010.2 6.4 SSE 27.4 0.0
14:00 28.7 46.0 1010.1 22.5 SSE 25.7 0.0
14:05 28.8 46.0 1010.1 16.1 S 29.0 0.0
14:10 29.0 44.0 1010.0 12.9 SSW 25.7 0.0
14:15 29.0 45.0 1010.0 14.5 SE 25.7 0.0
14:20 29.1 45.0 1009.8 6.4 E 22.5 0.0
14:25 29.2 43.0 1009.8 9.7 ESE 22.5 0.0
14:30 29.2 43.0 1009.8 12.9 E 24.1 0.0
14:35 29.2 44.0 1009.7 8.0 NE 24.1 0.0
14:40 29.2 44.0 1009.7 16.1 S 27.4 0.0
14:45 29.2 44.0 1009.6 9.7 S 24.1 0.0
14:50 29.2 44.0 1009.6 9.7 E 20.9 0.0
14:55 29.0 44.0 1009.3 14.5 SSE 24.1 0.0
15:00 29.0 45.0 1009.3 14.5 SE 25.7 0.0
15:05 28.8 44.0 1009.2 16.1 ESE 27.4 0.0
15:10 28.8 44.0 1009.2 19.3 SE 25.7 0.0
15:15 28.8 45.0 1009.2 11.3 E 25.7 0.0
15:20 29.1 44.0 1009.2 11.3 ENE 20.9 0.0
15:25 29.1 44.0 1009.0 17.7 E 25.7 0.0
15:30 28.9 44.0 1009.0 16.1 S 25.7 0.0
15:35 28.9 44.0 1009.0 12.9 E 22.5 0.0
15:40 28.9 45.0 1008.9 4.8 SE 22.5 0.0
15:45 28.9 45.0 1008.9 12.9 S 20.9 0.0
15:50 28.8 46.0 1008.9 16.1 SE 25.7 0.0
15:55 28.8 47.0 1008.9 6.4 E 24.1 0.0
16:00 28.8 46.0 1008.8 14.5 SSE 24.1 0.0
16:05 28.6 47.0 1008.7 3.2 E 22.5 0.0
16:10 28.7 47.0 1008.5 14.5 E 22.5 0.0
16:15 28.6 47.0 1008.5 9.7 E 22.5 0.0
16:20 28.5 48.0 1008.5 11.3 SSE 24.1 0.0
16:25 28.6 47.0 1008.5 12.9 ESE 24.1 0.0
16:30 28.5 47.0 1008.5 19.3 SE 24.1 0.0
16:35 28.3 48.0 1008.4 4.8 E 24.1 0.0
16:40 28.3 48.0 1008.4 9.7 SSW 24.1 0.0
16:45 28.3 48.0 1008.4 6.4 ESE 24.1 0.0
16:50 28.3 49.0 1008.3 6.4 SSE 24.1 0.0
16:55 28.2 49.0 1008.2 17.7 S 17.7 0.0
17:00 28.1 50.0 1008.1 24.1 E 24.1 0.0
17:05 28.0 50.0 1008.2 3.2 SE 24.1 0.0
17:10 28.0 50.0 1008.2 14.5 ESE 19.3 0.0
17:15 27.8 52.0 1008.2 9.7 SSE 20.9 0.0
17:20 27.8 52.0 1008.3 6.4 SSE 19.3 0.0
17:25 27.7 55.0 1008.3 4.8 S 16.1 0.0
17:30 27.5 55.0 1008.2 3.2 E 16.1 0.0
17:35 27.3 56.0 1008.2 14.5 SE 19.3 0.0
17:40 27.1 57.0 1008.2 11.3 SSE 19.3 0.0
17:45 26.8 58.0 1008.2 8.0 SSE 22.5 0.0
17:50 26.7 58.0 1008.1 8.0 S 16.1 0.0
17:55 26.6 59.0 1008.2 4.8 S 17.7 0.0
18:00 26.4 60.0 1008.2 9.7 ESE 17.7 0.0
18:05 26.4 60.0 1008.2 4.8 SE 14.5 0.0
18:10 26.3 60.0 1008.1 4.8 SE 14.5 0.0
18:15 26.2 61.0 1008.1 3.2 S 12.9 0.0
18:20 26.1 62.0 1008.1 9.7 S 16.1 0.0
18:25 25.8 62.0 1008.1 11.3 S 17.7 0.0
18:30 25.6 63.0 1008.1 11.3 SSE 17.7 0.0
18:35 25.4 64.0 1008.1 11.3 SSE 14.5 0.0
18:40 25.3 64.0 1008.1 14.5 S 16.1 0.0
18:45 25.1 65.0 1008.1 8.0 S 17.7 0.0
18:50 25.0 65.0 1008.1 11.3 SSE 16.1 0.0
18:55 24.8 66.0 1008.2 12.9 SSE 19.3 0.0
19:00 24.6 67.0 1008.2 9.7 SSE 19.3 0.0
19:05 24.4 68.0 1008.3 8.0 S 14.5 0.0
19:10 24.3 68.0 1008.3 6.4 S 12.9 0.0
19:15 24.2 69.0 1008.2 9.7 SSE 16.1 0.0
19:20 23.9 69.0 1008.2 16.1 S 17.7 0.0
19:25 23.8 70.0 1008.3 14.5 SSE 17.7 0.0
19:30 23.7 71.0 1008.4 11.3 S 16.1 0.0
19:35 23.5 71.0 1008.4 9.7 SSE 16.1 0.0
19:40 23.3 72.0 1008.6 8.0 SSE 17.7 0.0
19:45 23.2 72.0 1008.6 6.4 S 17.7 0.0
19:50 23.1 73.0 1008.7 3.2 S 12.9 0.0
19:55 22.9 73.0 1008.8 11.3 SSE 17.7 0.0
20:00 22.8 74.0 1008.9 11.3 SE 16.1 0.0
20:05 22.7 74.0 1008.9 14.5 SE 17.7 0.0
20:10 22.6 75.0 1009.1 6.4 ESE 17.7 0.0
20:15 22.5 75.0 1009.2 8.0 SSE 17.7 0.0
20:20 22.3 75.0 1009.4 6.4 SE 11.3 0.0
20:25 22.2 75.0 1009.5 6.4 SSE 11.3 0.0
20:30 22.2 76.0 1009.5 8.0 SE 11.3 0.0
20:35 22.2 76.0 1009.5 12.9 SE 14.5 0.0
20:40 21.9 76.0 1009.6 12.9 S 14.5 0.0
20:45 21.7 77.0 1009.7 3.2 SE 14.5 0.0
20:50 21.7 77.0 1009.6 4.8 SE 12.9 0.0
20:55 21.5 77.0 1009.8 6.4 SE 12.9 0.0
21:00 21.3 78.0 1009.9 4.8 ESE 11.3 0.0
21:05 21.1 78.0 1009.9 4.8 S 11.3 0.0
21:10 20.7 79.0 1009.9 3.2 SSW 9.7 0.0
21:15 20.3 80.0 1009.9 6.4 S 9.7 0.0
21:20 20.1 80.0 1010.0 1.6 SSW 6.4 0.0
21:25 19.9 81.0 1010.0 11.3 SSE 11.3 0.0
Màxima 29.3 87.0 1013.4 24.1 E 30.6 0.0
Mínima 12.7 43.0 1008.1
Total 0.0